PITTSFIELD MILLS DAM SUNCOOK RIVER PITTSFIELD, NH: From 08/03/2022 17:00 to 08/18/2022 06:00

Date PRECIPITATION INCREMENT [IN] WATER TEMPERATURE [F] AIR TEMPERATURE [F] POOL ELEVATION [FT] RESERVOIR RELEASE [CFS]
08/18/2022 00:00 -- -- -- -- 0.0
08/17/2022 23:00 0.00 73.9 62.0 474.36 0.0
08/17/2022 22:00 0.01 73.9 62.0 474.36 0.0
08/17/2022 21:00 0.00 73.9 63.0 474.36 0.0
08/17/2022 20:00 0.01 74.3 65.0 474.36 0.0
08/17/2022 19:00 0.00 74.8 65.0 474.36 0.0
08/17/2022 18:00 0.00 75.2 66.0 474.36 0.0
08/17/2022 17:00 0.00 75.0 66.0 474.36 0.0
08/17/2022 16:00 0.00 75.0 66.0 474.37 0.0
08/17/2022 15:00 0.01 75.6 66.0 474.36 0.0
08/17/2022 14:00 0.00 75.7 68.0 474.36 0.0
08/17/2022 13:00 0.00 75.7 73.0 474.38 0.0
08/17/2022 12:00 0.00 75.4 71.0 474.37 0.0
08/17/2022 11:00 0.00 75.0 70.0 474.37 0.0
08/17/2022 10:00 0.00 74.8 70.0 474.37 0.0
08/17/2022 09:00 0.00 74.7 68.0 474.37 0.0
08/17/2022 08:00 0.00 74.7 66.0 474.37 0.0
08/17/2022 07:00 0.00 74.5 63.0 474.37 0.0
08/17/2022 06:00 0.00 74.5 62.0 474.37 0.0
08/17/2022 05:00 0.00 74.5 62.0 474.37 0.0
08/17/2022 04:00 0.00 74.3 63.0 474.37 0.0
08/17/2022 03:00 0.00 74.3 63.0 474.37 0.0
08/17/2022 02:00 0.00 74.3 63.0 474.37 0.0
08/17/2022 01:00 0.00 74.3 64.0 474.37 0.0
08/17/2022 00:00 0.00 74.3 65.0 474.37 0.0
08/16/2022 23:00 0.00 75.0 66.0 474.37 0.0
08/16/2022 22:00 0.00 75.2 67.0 474.37 0.0
08/16/2022 21:00 0.00 75.6 70.0 474.37 0.0
08/16/2022 20:00 0.00 75.7 75.0 474.37 0.0
08/16/2022 19:00 0.00 75.4 77.0 474.37 0.0
08/16/2022 18:00 0.00 75.2 80.0 474.38 0.0
08/16/2022 17:00 0.00 75.6 82.0 474.37 0.0
08/16/2022 16:00 0.00 75.2 83.0 474.38 0.0
08/16/2022 15:00 0.00 75.2 82.0 474.38 0.0
08/16/2022 14:00 0.00 74.8 78.0 474.39 0.0
08/16/2022 13:00 0.00 74.7 79.0 474.39 0.0
08/16/2022 12:00 0.00 75.2 78.0 474.38 0.0
08/16/2022 11:00 0.00 75.0 75.0 474.38 0.0
08/16/2022 10:00 0.00 74.8 69.0 474.38 0.0
08/16/2022 09:00 0.00 74.7 61.0 474.38 0.0
08/16/2022 08:00 0.00 74.7 54.0 474.38 0.0
08/16/2022 07:00 0.00 74.5 52.0 474.38 0.0
08/16/2022 06:00 0.00 74.5 53.0 474.38 0.0
08/16/2022 05:00 0.00 74.5 54.0 474.38 0.0
08/16/2022 04:00 0.00 74.5 56.0 474.38 0.0
08/16/2022 03:00 0.00 74.5 57.0 474.38 0.0
08/16/2022 02:00 0.00 74.7 59.0 474.38 0.0
08/16/2022 01:00 0.00 74.7 61.0 474.38 0.0
08/16/2022 00:00 0.00 75.0 61.0 474.38 0.0
08/15/2022 23:00 0.00 75.2 63.0 474.39 0.0
08/15/2022 22:00 0.00 75.2 67.0 474.38 0.0
08/15/2022 21:00 0.00 75.2 72.0 474.38 0.0
08/15/2022 20:00 0.00 75.2 77.0 474.38 0.0
08/15/2022 19:00 0.00 75.2 77.0 474.39 0.0
08/15/2022 18:00 0.00 75.2 78.0 474.39 0.0
08/15/2022 17:00 0.00 75.2 79.0 474.39 0.0
08/15/2022 16:00 0.00 75.2 83.0 474.39 0.0
08/15/2022 15:00 0.00 75.2 82.0 474.39 0.0
08/15/2022 14:00 0.00 75.0 80.0 474.39 0.0
08/15/2022 13:00 0.00 75.0 77.0 474.39 0.0
08/15/2022 12:00 0.00 75.0 76.0 474.39 0.0
08/15/2022 11:00 0.00 75.0 73.0 474.39 0.0
08/15/2022 10:00 0.00 74.8 68.0 474.39 0.0
08/15/2022 09:00 0.00 75.0 59.0 474.39 0.0
08/15/2022 08:00 0.00 75.2 53.0 474.39 0.0
08/15/2022 07:00 0.00 75.4 52.0 474.39 0.0
08/15/2022 06:00 0.00 75.4 52.0 474.39 0.0
08/15/2022 05:00 0.00 75.6 53.0 474.39 0.0
08/15/2022 04:00 0.00 75.6 54.0 474.39 0.0
08/15/2022 03:00 0.00 75.7 55.0 474.39 0.0
08/15/2022 02:00 0.00 75.7 56.0 474.39 0.0
08/15/2022 01:00 0.00 75.7 58.0 474.39 0.0
08/15/2022 00:00 0.00 75.7 60.0 474.39 0.0
08/14/2022 23:00 0.00 75.7 62.0 474.39 0.0
08/14/2022 22:00 0.00 75.7 65.0 474.39 0.0
08/14/2022 21:00 0.00 75.7 70.0 474.39 0.0
08/14/2022 20:00 0.00 75.9 78.0 474.39 0.0
08/14/2022 19:00 0.00 75.9 81.0 474.39 0.0
08/14/2022 18:00 0.00 75.7 81.0 474.39 0.0
08/14/2022 17:00 0.00 75.9 78.0 474.39 0.0
08/14/2022 16:00 0.00 75.9 81.0 474.40 0.0
08/14/2022 15:00 0.00 75.9 77.0 474.39 0.0
08/14/2022 14:00 0.00 75.9 77.0 474.40 0.0
08/14/2022 13:00 0.00 75.7 77.0 474.39 0.0
08/14/2022 12:00 0.00 75.9 73.0 474.40 0.0
08/14/2022 11:00 0.00 75.9 72.0 474.40 0.0
08/14/2022 10:00 0.00 75.9 67.0 474.40 0.0
08/14/2022 09:00 0.00 75.9 60.0 474.40 0.0
08/14/2022 08:00 0.00 76.1 53.0 474.40 0.0
08/14/2022 07:00 0.00 76.3 52.0 474.40 0.0
08/14/2022 06:00 0.00 76.5 53.0 474.40 0.0
08/14/2022 05:00 0.00 76.5 54.0 474.40 0.0
08/14/2022 04:00 0.00 76.3 55.0 474.40 0.0
08/14/2022 03:00 0.00 76.5 57.0 474.40 0.0
08/14/2022 02:00 0.00 76.5 57.0 474.40 0.0
08/14/2022 01:00 0.00 76.6 60.0 474.40 0.0
08/14/2022 00:00 0.00 76.6 61.0 474.40 0.0
08/13/2022 23:00 0.00 76.6 61.0 474.40 0.0
08/13/2022 22:00 0.00 76.6 63.0 474.40 0.0
08/13/2022 21:00 0.00 76.6 68.0 474.40 0.0
08/13/2022 20:00 0.00 76.8 71.0 474.41 0.0
08/13/2022 19:00 0.00 76.8 72.0 474.41 0.0
08/13/2022 18:00 0.00 77.0 72.0 474.41 0.0
08/13/2022 17:00 0.00 77.0 72.0 474.41 0.0
08/13/2022 16:00 0.00 77.0 73.0 474.41 0.0
08/13/2022 15:00 0.00 77.0 73.0 474.41 0.0
08/13/2022 14:00 0.00 76.8 71.0 474.41 0.0
08/13/2022 13:00 0.00 77.0 70.0 474.41 0.0
08/13/2022 12:00 0.00 76.8 70.0 474.42 0.0
08/13/2022 11:00 0.00 76.8 67.0 474.42 0.0
08/13/2022 10:00 0.00 76.8 64.0 474.42 0.0
08/13/2022 09:00 0.00 76.8 56.0 474.42 0.0
08/13/2022 08:00 0.00 77.0 55.0 474.42 0.0
08/13/2022 07:00 0.00 77.2 54.0 474.42 0.0
08/13/2022 06:00 0.00 77.4 54.0 474.42 0.0
08/13/2022 05:00 0.00 77.5 55.0 474.42 0.0
08/13/2022 04:00 0.00 77.7 56.0 474.42 0.0
08/13/2022 03:00 0.00 77.9 56.0 474.42 0.0
08/13/2022 02:00 0.00 78.1 57.0 474.42 0.0
08/13/2022 01:00 0.00 78.3 59.0 474.42 0.0
08/13/2022 00:00 0.00 78.1 61.0 474.42 0.0
08/12/2022 23:00 0.00 78.1 65.0 474.42 0.0
08/12/2022 22:00 0.00 77.9 66.0 474.42 0.0
08/12/2022 21:00 0.00 77.7 67.0 474.42 0.0
08/12/2022 20:00 0.00 77.5 70.0 474.42 0.0
08/12/2022 19:00 0.00 77.5 71.0 474.42 0.0
08/12/2022 18:00 0.00 77.5 71.0 474.43 0.0
08/12/2022 17:00 0.00 77.4 72.0 474.42 0.0
08/12/2022 16:00 0.00 76.8 72.0 474.43 0.0
08/12/2022 15:00 0.00 77.4 72.0 474.43 0.0
08/12/2022 14:00 0.00 77.5 70.0 474.41 0.0
08/12/2022 13:00 0.00 77.2 70.0 474.42 0.0
08/12/2022 12:00 0.00 77.4 69.0 474.43 0.0
08/12/2022 11:00 0.00 78.1 69.0 474.43 0.0
08/12/2022 10:00 0.00 78.1 66.0 474.43 0.0
08/12/2022 09:00 0.00 78.3 63.0 474.43 0.0
08/12/2022 08:00 0.00 78.3 59.0 474.43 0.0
08/12/2022 07:00 0.00 78.1 58.0 474.43 0.0
08/12/2022 06:00 0.00 78.1 59.0 474.43 0.0
08/12/2022 05:00 0.00 77.9 59.0 474.43 0.0
08/12/2022 04:00 0.00 77.9 60.0 474.43 0.0
08/12/2022 03:00 0.00 77.9 62.0 474.43 0.0
08/12/2022 02:00 0.00 78.1 63.0 474.43 0.0
08/12/2022 01:00 0.00 77.9 66.0 474.43 0.0
08/12/2022 00:00 0.00 78.3 70.0 474.43 0.0
08/11/2022 23:00 0.00 78.8 71.0 474.43 0.0
08/11/2022 22:00 0.00 78.6 73.0 474.43 0.0
08/11/2022 21:00 0.00 78.4 73.0 474.43 0.0
08/11/2022 20:00 0.00 78.6 81.0 474.43 0.0
08/11/2022 19:00 0.00 78.3 82.0 474.43 0.0
08/11/2022 18:00 0.00 78.4 81.0 474.43 0.0
08/11/2022 17:00 0.00 78.3 80.0 474.43 0.0
08/11/2022 16:00 0.00 78.4 80.0 474.42 0.0
08/11/2022 15:00 0.00 78.3 79.0 474.42 0.0
08/11/2022 14:00 0.00 78.4 79.0 474.42 0.0
08/11/2022 13:00 0.00 77.9 75.0 474.42 0.0
08/11/2022 12:00 0.00 78.1 74.0 474.42 0.0
08/11/2022 11:00 0.00 78.4 71.0 474.42 0.0
08/11/2022 10:00 0.00 78.6 69.0 474.42 0.0
08/11/2022 09:00 0.00 78.8 64.0 474.41 0.0
08/11/2022 08:00 0.00 78.6 62.0 474.41 0.0
08/11/2022 07:00 0.00 78.4 61.0 474.41 0.0
08/11/2022 06:00 0.00 78.4 62.0 474.41 0.0
08/11/2022 05:00 0.00 78.4 62.0 474.40 0.0
08/11/2022 04:00 0.00 78.3 63.0 474.40 0.0
08/11/2022 03:00 0.00 78.4 63.0 474.40 0.0
08/11/2022 02:00 0.00 78.4 63.0 474.40 0.0
08/11/2022 01:00 0.00 78.8 63.0 474.40 0.0
08/11/2022 00:00 0.00 79.0 64.0 474.40 0.0
08/10/2022 23:00 0.00 79.2 66.0 474.40 0.0
08/10/2022 22:00 0.00 79.2 67.0 474.39 0.0
08/10/2022 21:00 0.00 78.4 69.0 474.39 0.0
08/10/2022 20:00 0.00 78.6 72.0 474.39 0.0
08/10/2022 19:00 0.00 78.1 77.0 474.39 0.0
08/10/2022 18:00 0.00 78.6 77.0 474.39 0.0
08/10/2022 17:00 0.00 77.9 77.0 474.39 0.0
08/10/2022 16:00 0.00 79.2 77.0 474.39 0.0
08/10/2022 15:00 0.00 77.9 74.0 474.39 0.0
08/10/2022 14:00 0.00 78.3 73.0 474.39 0.0
08/10/2022 13:00 0.00 78.3 72.0 474.39 0.0
08/10/2022 12:00 0.00 78.4 68.0 474.39 0.0
08/10/2022 11:00 0.00 78.6 67.0 474.39 0.0
08/10/2022 10:00 0.00 78.4 66.0 474.39 0.0
08/10/2022 09:00 0.00 78.4 64.0 474.39 0.0
08/10/2022 08:00 0.00 78.4 65.0 474.39 0.0
08/10/2022 07:00 0.00 78.3 65.0 474.39 0.0
08/10/2022 06:00 0.00 78.1 65.0 474.39 0.0
08/10/2022 05:00 0.00 78.1 65.0 474.39 0.0
08/10/2022 04:00 0.00 77.9 65.0 474.39 0.0
08/10/2022 03:00 0.00 78.1 66.0 474.39 0.0
08/10/2022 02:00 0.00 78.6 66.0 474.39 0.0
08/10/2022 01:00 0.00 79.5 67.0 474.39 0.0
08/10/2022 00:00 0.00 80.1 67.0 474.39 0.0
08/09/2022 23:00 0.00 80.1 68.0 474.39 0.0
08/09/2022 22:00 0.00 80.1 69.0 474.39 0.0
08/09/2022 21:00 0.00 79.3 71.0 474.39 0.0
08/09/2022 20:00 0.00 78.8 77.0 474.39 0.0
08/09/2022 19:00 0.00 78.6 86.0 474.39 0.0
08/09/2022 18:00 0.00 78.6 88.0 474.39 0.0
08/09/2022 17:00 0.00 78.3 87.0 474.40 0.0
08/09/2022 16:00 0.00 78.3 88.0 474.39 0.0
08/09/2022 15:00 0.00 77.7 86.0 474.39 0.0
08/09/2022 14:00 0.00 77.7 86.0 474.40 0.0
08/09/2022 13:00 0.00 78.1 85.0 474.39 0.0
08/09/2022 12:00 0.00 77.9 84.0 474.40 0.0
08/09/2022 11:00 0.00 77.9 80.0 474.40 0.0
08/09/2022 10:00 0.00 77.9 78.0 474.40 0.0
08/09/2022 09:00 0.00 77.9 76.0 474.40 0.0
08/09/2022 08:00 0.00 77.9 74.0 474.40 0.0
08/09/2022 07:00 0.00 77.9 74.0 474.40 0.0
08/09/2022 06:00 0.00 78.1 74.0 474.40 0.0
08/09/2022 05:00 0.01 78.4 74.0 474.41 0.0
08/09/2022 04:00 0.00 78.4 74.0 474.41 0.0
08/09/2022 03:00 0.00 78.3 74.0 474.41 0.0
08/09/2022 02:00 0.00 78.4 73.0 474.42 0.0
08/09/2022 01:00 0.11 78.8 74.0 474.42 0.0
08/09/2022 00:00 0.12 78.1 74.0 474.41 0.0
08/08/2022 23:00 0.00 78.1 74.0 474.40 0.0
08/08/2022 22:00 0.02 78.8 75.0 474.40 0.0
08/08/2022 21:00 0.00 78.8 81.0 474.39 0.0
08/08/2022 20:00 0.00 79.2 84.0 474.40 0.0
08/08/2022 19:00 0.00 78.6 83.0 474.40 0.0
08/08/2022 18:00 0.10 78.8 83.0 474.41 0.0
08/08/2022 17:00 0.01 78.1 87.0 474.38 0.0
08/08/2022 16:00 0.00 77.7 86.0 474.40 0.0
08/08/2022 15:00 0.00 77.5 93.0 474.39 0.0
08/08/2022 14:00 0.00 77.4 90.0 474.39 0.0
08/08/2022 13:00 0.00 77.2 90.0 474.39 0.0
08/08/2022 12:00 0.00 77.2 87.0 474.39 0.0
08/08/2022 11:00 0.00 77.5 84.0 474.40 0.0
08/08/2022 10:00 0.00 77.5 80.0 474.39 0.0
08/08/2022 09:00 0.00 77.7 76.0 474.39 0.0
08/08/2022 08:00 0.00 77.9 72.0 474.39 0.0
08/08/2022 07:00 0.00 77.7 70.0 474.39 0.0
08/08/2022 06:00 0.00 77.7 70.0 474.39 0.0
08/08/2022 05:00 0.00 77.5 71.0 474.39 0.0
08/08/2022 04:00 0.00 77.5 73.0 474.39 0.0
08/08/2022 03:00 0.00 77.9 73.0 474.39 0.0
08/08/2022 02:00 0.00 78.3 74.0 474.40 0.0
08/08/2022 01:00 0.00 78.4 75.0 474.40 0.0
08/08/2022 00:00 0.00 78.4 76.0 474.40 0.0
08/07/2022 23:00 0.00 78.4 77.0 474.40 0.0
08/07/2022 22:00 0.00 78.1 77.0 474.40 0.0
08/07/2022 21:00 0.00 78.1 80.0 474.40 0.0
08/07/2022 20:00 0.00 78.1 84.0 474.40 0.0
08/07/2022 19:00 0.00 78.3 85.0 474.40 0.0
08/07/2022 18:00 0.00 78.3 84.0 474.40 0.0
08/07/2022 17:00 0.00 77.9 79.0 474.41 0.0
08/07/2022 16:00 0.00 77.9 85.0 474.40 0.0
08/07/2022 15:00 0.10 77.7 81.0 474.41 0.0
08/07/2022 14:00 0.03 77.7 80.0 474.39 0.0
08/07/2022 13:00 0.00 77.4 86.0 474.40 0.0
08/07/2022 12:00 0.00 77.4 85.0 474.40 0.0
08/07/2022 11:00 0.00 77.0 81.0 474.39 0.0
08/07/2022 10:00 0.00 77.5 80.0 474.39 0.0
08/07/2022 09:00 0.00 77.4 78.0 474.39 0.0
08/07/2022 08:00 0.00 77.4 74.0 474.39 0.0
08/07/2022 07:00 0.00 77.5 72.0 474.39 0.0
08/07/2022 06:00 0.00 77.5 73.0 474.40 0.0
08/07/2022 05:00 0.00 77.5 73.0 474.40 0.0
08/07/2022 04:00 0.00 77.7 74.0 474.40 0.0
08/07/2022 03:00 0.00 77.7 74.0 474.40 0.0
08/07/2022 02:00 0.00 77.7 75.0 474.40 0.0
08/07/2022 01:00 0.00 77.7 75.0 474.40 0.0
08/07/2022 00:00 0.00 78.1 76.0 474.40 0.0
08/06/2022 23:00 0.00 78.3 77.0 474.40 0.0
08/06/2022 22:00 0.00 77.7 78.0 474.40 0.0
08/06/2022 21:00 0.00 78.3 80.0 474.40 0.0
08/06/2022 20:00 0.00 78.3 83.0 474.40 0.0
08/06/2022 19:00 0.06 77.9 82.0 474.40 0.0
08/06/2022 18:00 0.00 77.9 89.0 474.39 0.0
08/06/2022 17:00 0.00 77.5 92.0 474.39 0.0
08/06/2022 16:00 0.00 77.0 89.0 474.39 0.0
08/06/2022 15:00 0.00 76.8 88.0 474.40 0.0
08/06/2022 14:00 0.00 77.0 89.0 474.40 0.0
08/06/2022 13:00 0.00 76.6 89.0 474.40 0.0
08/06/2022 12:00 0.00 77.7 85.0 474.39 0.0
08/06/2022 11:00 0.00 77.2 84.0 474.39 0.0
08/06/2022 10:00 0.00 77.2 81.0 474.39 0.0
08/06/2022 09:00 0.00 77.2 76.0 474.39 0.0
08/06/2022 08:00 0.00 77.0 71.0 474.39 0.0
08/06/2022 07:00 0.00 77.0 69.0 474.39 0.0
08/06/2022 06:00 0.00 77.0 70.0 474.39 0.0
08/06/2022 05:00 0.00 77.2 70.0 474.39 0.0
08/06/2022 04:00 0.00 77.2 70.0 474.39 0.0
08/06/2022 03:00 0.00 77.4 71.0 474.39 0.0
08/06/2022 02:00 0.00 77.9 72.0 474.40 0.0
08/06/2022 01:00 0.00 77.7 73.0 474.40 0.0
08/06/2022 00:00 0.00 77.7 74.0 474.40 0.0
08/05/2022 23:00 0.00 78.1 77.0 474.40 0.0
08/05/2022 22:00 0.00 77.7 80.0 474.40 0.0
08/05/2022 21:00 0.00 77.7 83.0 474.40 0.0
08/05/2022 20:00 0.00 77.4 90.0 474.40 0.0
08/05/2022 19:00 0.00 77.5 89.0 474.40 0.0
08/05/2022 18:00 0.00 77.4 89.0 474.40 0.0
08/05/2022 17:00 0.00 77.2 89.0 474.39 0.0
08/05/2022 16:00 0.00 77.2 87.0 474.40 0.0
08/05/2022 15:00 0.00 76.6 86.0 474.39 0.0
08/05/2022 14:00 0.00 77.2 85.0 474.40 0.0
08/05/2022 13:00 0.00 76.6 83.0 474.40 0.0
08/05/2022 12:00 0.00 76.8 83.0 474.39 0.0
08/05/2022 11:00 0.00 76.8 78.0 474.39 0.0
08/05/2022 10:00 0.00 76.6 75.0 474.40 0.0
08/05/2022 09:00 0.00 76.8 74.0 474.40 0.0
08/05/2022 08:00 0.00 77.0 71.0 474.40 0.0
08/05/2022 07:00 0.00 77.2 71.0 474.40 0.0
08/05/2022 06:00 0.00 77.2 71.0 474.40 0.0
08/05/2022 05:00 0.00 77.4 72.0 474.40 0.0
08/05/2022 04:00 0.00 77.5 72.0 474.40 0.0
08/05/2022 03:00 0.00 77.7 72.0 474.40 0.0
08/05/2022 02:00 0.00 77.7 73.0 474.40 0.0
08/05/2022 01:00 0.00 77.4 73.0 474.40 0.0
08/05/2022 00:00 0.00 77.4 75.0 474.40 0.0
08/04/2022 23:00 0.00 77.5 76.0 474.40 0.0
08/04/2022 22:00 0.00 77.5 78.0 474.40 0.0
08/04/2022 21:00 0.00 77.4 83.0 474.40 0.0
08/04/2022 20:00 0.00 77.0 92.0 474.40 0.0
08/04/2022 19:00 0.00 77.0 96.0 474.40 0.0
08/04/2022 18:00 0.00 77.0 95.0 474.39 0.0
08/04/2022 17:00 0.00 76.6 95.0 474.40 0.0
08/04/2022 16:00 0.00 77.0 93.0 474.39 0.0
08/04/2022 15:00 0.00 76.5 91.0 474.40 0.0
08/04/2022 14:00 0.00 76.3 90.0 474.40 0.0
08/04/2022 13:00 0.00 76.8 88.0 474.39 0.0
08/04/2022 12:00 0.00 76.5 84.0 474.39 0.0
08/04/2022 11:00 0.00 76.6 80.0 474.39 0.0
08/04/2022 10:00 0.00 76.6 76.0 474.39 0.0
08/04/2022 09:00 0.00 76.8 70.0 474.40 0.0
08/04/2022 08:00 0.00 76.8 63.0 474.40 0.0
08/04/2022 07:00 0.00 77.0 62.0 474.40 0.0
08/04/2022 06:00 0.00 76.8 62.0 474.40 0.0
08/04/2022 05:00 0.00 76.8 63.0 474.40 0.0
08/04/2022 04:00 0.00 76.6 63.0 474.40 0.0
08/04/2022 03:00 0.00 76.6 65.0 474.40 0.0
08/04/2022 02:00 0.00 76.6 65.0 474.39 0.0
08/04/2022 01:00 0.00 77.2 67.0 474.40 0.0
08/04/2022 00:00 0.00 77.2 69.0 474.40 0.0
08/03/2022 23:00 -- -- -- -- --
08/03/2022 22:00 -- -- -- -- --
08/03/2022 21:00 -- -- -- -- --
08/03/2022 20:00 -- -- -- -- --
08/03/2022 19:00 -- -- -- -- --
08/03/2022 18:00 -- -- -- -- --
08/03/2022 17:00 -- -- -- -- --